Wind_Speed
42 39 51 52 55 57 57 54 50 48 49 45 41 37 32 30 37 30 29 23 23 24 23 20 18 17 19 15 16 17 15 13 12
38 38 37 51 55 56 58 56 53 50 49 47 42 38 33 32 37 38 32 33 25 26 25 21 16 17 16 15 16 19 17 14 14
32 33 45 49 54 56 57 58 55 51 49 48 45 40 36 32 37 40 37 35 35 30 26 24 22 24 22 21 19 20 20 18 17
37 51 46 48 55 57 57 56 55 54 51 48 47 43 39 36 35 40 38 39 39 39 30 28 30 26 27 26 25 23 23 21 20
37 26 51 49 54 53 55 54 55 57 54 51 47 44 41 38 37 38 40 42 42 41 39 34 32 33 31 29 28 25 25 23 24
29 26 33 47 50 51 56 54 54 56 56 52 49 45 43 41 39 39 42 42 44 44 42 40 38 37 38 36 32 30 28 25 25
18 32 23 46 48 55 56 56 53 54 56 53 49 47 45 44 44 42 42 43 44 46 45 41 42 42 40 39 37 35 31 27 27
28 12 16 37 47 53 53 54 54 53 53 53 48 46 46 46 45 44 42 44 45 45 48 47 43 42 42 42 39 38 35 35 32
29 18 24 34 41 50 53 53 54 55 54 54 50 46 46 45 45 45 45 45 46 45 43 44 45 44 43 42 42 40 36 37 34
11 18 21 31 35 40 48 51 50 55 55 55 52 48 46 45 45 44 44 45 45 44 42 40 40 40 40 41 39 37 36 37 35
7 16 22 34 33 29 32 46 51 49 55 57 55 51 49 46 45 44 42 42 43 42 40 38 38 37 38 37 36 32 32 33 34
26 25 32 18 26 30 30 34 38 51 54 58 57 55 52 51 47 44 46 45 42 40 38 37 37 36 37 35 33 32 29 30 31
6 14 32 30 25 28 38 35 38 40 49 56 60 58 56 54 50 47 48 47 43 40 38 36 35 35 34 30 27 27 27 22 26
18 15 18 33 46 36 26 27 38 42 45 52 56 59 54 52 48 47 47 44 40 41 36 34 33 30 29 26 24 22 23 23 20
22 18 10 21 33 41 38 31 36 46 46 46 49 49 43 46 40 41 40 38 38 33 31 31 28 25 22 22 18 17 18 17 14
6 2 3 12 21 30 32 35 38 42 41 40 36 39 39 33 34 34 34 34 29 30 28 27 23 22 20 17 15 16 16 14 15
15 11 13 16 22 24 21 31 35 35 36 36 32 35 36 35 37 33 29 28 28 26 25 21 21 20 18 16 16 16 15 13 14
15 15 16 20 23 25 24 19 22 28 32 35 35 37 35 32 32 32 31 27 24 22 20 16 17 16 14 16 19 16 11 11 11
14 9 7 12 25 28 28 27 29 31 33 33 35 33 26 28 29 29 27 25 22 19 15 15 14 14 16 14 12 10 9 10 8
16 12 9 2 5 21 25 28 27 25 24 24 21 23 26 28 27 25 22 18 17 18 19 17 18 16 16 12 11 9 12 11 9
Wind_Direction
189 198 194 196 202 202 202 202 205 211 212 213 216 219 221 215 213 214 204 205 215 226 235 240 223 226 227 215 219 218 217 208 201
187 214 197 196 200 203 201 201 206 211 213 213 216 219 221 217 212 216 207 204 213 225 229 233 218 230 231 229 227 224 220 213 214
206 201 206 195 197 202 206 204 205 210 217 216 215 217 220 222 216 215 215 213 213 217 222 224 226 235 240 243 240 230 225 219 211
196 202 200 193 198 201 208 203 203 207 212 215 215 216 219 224 223 218 217 217 219 219 218 217 223 229 237 243 245 240 231 221 219
199 189 193 191 195 194 200 201 203 206 210 215 219 219 220 224 226 223 220 219 222 223 222 224 225 230 235 240 244 245 241 232 222
209 225 196 185 187 189 195 200 202 204 209 214 218 220 223 226 226 226 224 222 222 225 223 223 229 232 237 243 246 249 250 243 232
203 239 212 189 184 189 193 198 203 204 208 213 217 221 224 226 228 227 226 226 224 225 228 227 229 235 240 244 248 252 253 252 238
224 231 205 189 176 185 194 198 204 207 209 208 216 219 224 227 229 230 229 230 232 229 228 234 236 239 242 246 248 251 253 256 244
194 225 201 189 184 192 198 202 205 206 210 209 210 218 223 227 227 229 230 232 233 236 234 234 236 240 244 248 250 254 259 260 252
185 222 219 194 195 198 203 206 212 209 211 211 209 216 221 224 227 228 231 232 234 235 236 238 240 242 244 248 253 257 258 258 254
247 292 239 209 207 198 203 211 213 219 213 210 211 214 219 220 225 228 229 231 233 233 235 237 241 243 247 247 254 261 260 254 250
212 240 246 248 205 211 210 206 209 217 214 214 212 215 217 221 222 226 227 229 230 232 231 233 236 242 246 249 255 256 261 253 244
329 236 226 239 243 253 220 211 210 210 214 214 213 216 220 220 222 224 228 229 228 230 229 232 235 239 247 255 258 255 256 263 251
310 320 240 222 215 225 230 231 223 211 212 214 220 215 215 218 220 224 227 226 225 222 222 228 233 241 247 248 251 255 261 255 255
299 285 268 235 221 231 236 234 222 210 210 217 210 208 210 215 212 218 218 217 215 217 219 223 225 228 235 242 243 244 245 248 233
37 97 197 236 231 223 218 222 206 204 205 206 202 201 201 201 198 202 203 200 209 222 212 214 220 222 230 231 229 236 226 222 226
58 64 135 153 162 167 167 184 194 201 195 196 188 184 190 191 188 187 193 205 220 213 207 213 214 219 224 221 220 212 212 226 235
77 94 113 141 154 152 153 167 175 178 178 183 178 180 181 178 186 195 195 196 193 201 211 220 223 216 209 198 200 214 228 218 232
88 82 104 139 127 138 143 156 159 165 172 176 172 173 192 193 183 181 183 189 189 187 199 207 199 194 197 199 210 203 192 184 182
93 69 55 68 151 125 133 136 139 149 157 167 182 195 181 178 175 179 185 191 191 190 183 186 188 186 200 206 198 184 183 189 216
Height
1436 1439 1444 1450 1454 1460 1466 1474 1480 1484 1490 1498 1504 1509 1515 1521 1525 1530 1535 1538 1541 1543 1545 1547 1549 1550 1552 1554 1555 1556 1557 1559 1560
1426 1430 1441 1440 1447 1452 1458 1466 1471 1477 1483 1490 1497 1502 1508 1514 1519 1524 1528 1533 1537 1539 1542 1543 1545 1546 1549 1551 1552 1553 1555 1557 1557
1413 1420 1426 1432 1439 1444 1448 1454 1463 1471 1475 1481 1490 1497 1502 1507 1512 1517 1523 1528 1531 1534 1537 1539 1540 1542 1544 1547 1549 1551 1552 1553 1556
1399 1406 1410 1422 1428 1434 1439 1447 1457 1463 1469 1475 1482 1489 1495 1500 1505 1511 1517 1521 1525 1528 1532 1535 1536 1538 1540 1542 1543 1546 1547 1549 1551
1391 1397 1402 1411 1419 1428 1436 1438 1447 1454 1461 1466 1473 1480 1488 1493 1498 1504 1510 1514 1517 1521 1526 1528 1530 1533 1534 1537 1539 1542 1544 1546 1548
1393 1394 1399 1403 1411 1420 1427 1433 1438 1446 1453 1458 1466 1473 1480 1486 1491 1495 1500 1505 1509 1514 1518 1522 1524 1526 1528 1530 1534 1537 1540 1543 1546
1389 1396 1395 1399 1404 1411 1419 1425 1430 1438 1444 1451 1458 1465 1471 1477 1481 1486 1491 1496 1502 1506 1509 1513 1516 1518 1521 1525 1528 1531 1535 1538 1540
1386 1389 1390 1392 1397 1406 1413 1419 1424 1430 1436 1444 1450 1456 1462 1466 1472 1479 1485 1489 1493 1499 1503 1506 1510 1513 1516 1519 1523 1525 1527 1527 1528
1375 1383 1387 1388 1393 1399 1405 1410 1415 1421 1428 1435 1443 1447 1451 1459 1466 1471 1476 1481 1486 1490 1496 1500 1504 1507 1510 1513 1515 1518 1523 1522 1526
1369 1379 1384 1387 1390 1393 1399 1404 1409 1413 1417 1425 1434 1439 1444 1451 1457 1462 1467 1474 1479 1483 1487 1493 1496 1500 1504 1506 1510 1513 1517 1518 1520
1375 1375 1378 1382 1385 1390 1395 1400 1405 1409 1412 1417 1423 1429 1434 1440 1447 1453 1460 1466 1470 1477 1482 1487 1489 1493 1496 1500 1503 1507 1509 1511 1514
1367 1372 1374 1381 1381 1387 1389 1391 1397 1403 1406 1409 1415 1420 1426 1430 1437 1445 1452 1457 1464 1470 1476 1481 1484 1488 1491 1495 1497 1501 1503 1505 1507
1364 1366 1366 1372 1376 1383 1383 1386 1388 1392 1395 1402 1406 1411 1416 1423 1430 1437 1443 1450 1458 1464 1471 1475 1479 1482 1485 1489 1492 1495 1498 1499 1501
1358 1359 1360 1362 1366 1371 1376 1382 1382 1384 1388 1391 1395 1404 1413 1420 1427 1433 1437 1445 1452 1458 1465 1469 1473 1477 1481 1484 1487 1489 1492 1494 1496
1350 1353 1356 1356 1358 1362 1367 1370 1374 1379 1382 1386 1394 1402 1410 1417 1423 1428 1433 1439 1446 1455 1459 1463 1467 1470 1475 1479 1482 1485 1487 1490 1493
1350 1348 1348 1348 1349 1352 1355 1358 1363 1371 1378 1384 1392 1400 1408 1413 1419 1423 1429 1435 1445 1449 1454 1459 1463 1465 1469 1474 1477 1479 1483 1486 1489
1352 1353 1350 1347 1346 1346 1352 1356 1364 1369 1373 1381 1387 1396 1403 1408 1413 1420 1427 1433 1438 1443 1449 1452 1458 1461 1464 1469 1471 1473 1478 1481 1484
1356 1357 1355 1351 1346 1347 1354 1362 1366 1369 1372 1378 1383 1391 1399 1407 1413 1418 1424 1432 1437 1441 1444 1450 1455 1457 1461 1465 1467 1470 1474 1477 1479
1360 1362 1354 1356 1350 1349 1352 1357 1364 1369 1373 1374 1384 1394 1403 1406 1413 1419 1423 1429 1434 1439 1445 1448 1452 1456 1461 1465 1469 1469 1471 1474 1477
1364 1363 1365 1365 1363 1360 1360 1363 1367 1373 1379 1385 1390 1394 1402 1406 1414 1419 1423 1426 1432 1437 1441 1446 1450 1452 1458 1463 1469 1469 1470 1471 1474